Location: Black Skies Observatory
(44.7549°N, 79.7179°W)
Time: 14:54:06
(UTC-05:00)

Envisat - Pass Details

Date: 05 November 2020
Orbit: 764 x 766 km, 98.1° (Epoch: 01 December)

Event Time Altitude Azimuth Distance (km) Brightness Sun altitude
Rises 06:24:50 0° 13° (NNE) 3,242 6.2 -7.3°
Reaches altitude 10° 06:27:08 10° 13° (NNE) 2,311 5.5 -6.9°
Maximum altitude 06:32:15 88° 284° (WNW) 771 3.0 -6.0°
Drops below altitude 10° 06:37:19 10° 196° (SSW) 2,293 5.5 -5.1°
Sets 06:39:36 0° 196° (SSW) 3,215 6.3 -4.7°
